Regional Weather Roundup
Issued by NWS

Home | Current Version | Previous Version | Graphics & Text | Print | Product List | Glossary On
Versions: 1 2 3 4 5 6 7 8 9 10 11 12 13 14 15 16 17 18 19 20 21 22 23 24 25 26 27 28 29 30 31 32 33 34 35 36 37 38 39 40 41 42 43 44 45 46 47 48 49 50
000
ASUS44 KMEG 282010
RWRTN
TENNESSEE HOURLY STATE WEATHER ROUNDUP
NATIONAL WEATHER SERVICE MEMPHIS TN
200 PM CST SUN DEC 28 2014

TNZ002-004-019-021-049-052-054-088>092-282100-
WEST TENNESSEE

CITY           SKY/WX    TMP DP  RH WIND       PRES   REMARKS
MEMPHIS INTL   LGT RAIN  41  37  86 NE5       30.15F
NWS MEMPHIS      N/A     40 N/A N/A MISG        N/A
JACKSON        CLOUDY    40  36  86 N6        30.16S
DYERSBURG      CLOUDY    37  25  60 N7        30.19S WCI  32
UNION CITY     CLOUDY    34  34 100 N7        30.16  WCI  28
PARIS          CLOUDY    36  34  93 N8        30.15  WCI  29
HUNTINGDON     CLOUDY    37  34  89 N5        30.15F WCI  33
LEXINGTON      CLOUDY    39  37  93 N3        30.13
SAVANNAH       CLOUDY    41  39  93 N7        30.13
$$

TNZ008-025-027-028-033-062-065-066-282100-
NORTH MIDDLE TENNESSEE

CITY           SKY/WX    TMP DP  RH WIND       PRES   REMARKS
NASHVILLE      LGT RAIN  41  39  93 N7        30.13S
CLARKSVILLE    LGT RAIN  37  35  92 N8        30.15S FOG     WCI  31
SMYRNA         LGT RAIN  42  40  93 N8        30.14S
COOKEVILLE     CLOUDY    45  43  93 N6        30.07
CROSSVILLE     FOG       47  45  93 E3        30.04F VSB 1
$$

TNZ061-075-076-078-094-096-097-282100-
SOUTH MIDDLE TENNESSEE

CITY           SKY/WX    TMP DP  RH WIND       PRES   REMARKS
FAYETTEVILLE   CLOUDY    43  43 100 N8        30.08
TULLAHOMA      CLOUDY    43  41  93 N8        30.08
WINCHESTER     CLOUDY    45  45 100 N3        30.07
MCMINNVILLE    CLOUDY    45  45 100 CALM      30.08
COLUMBIA       CLOUDY   N/A N/A N/A N5        30.11
SHELBYVILLE    CLOUDY    43  43 100 N10       30.11
$$

TNZ017-018-042-046-047-282100-
NORTHEAST TENNESSEE

CITY           SKY/WX    TMP DP  RH WIND       PRES   REMARKS
TRI CITIES     CLOUDY    49  47  93 CALM      30.07S FOG
ELIZABETHTON   CLOUDY    45  45 100 CALM      30.06
$$

TNZ012-013-036-069-073-074-282100-
CENTRAL EAST TENNESSEE

CITY           SKY/WX    TMP DP  RH WIND       PRES   REMARKS
KNOXVILLE      CLOUDY    51  51 100 CALM      30.05S FOG
OAK RIDGE      CLOUDY    52  51  97 E3        30.06F
GATLINBURG     CLOUDY    48  46  93 CALM      30.04
MORRISTOWN     MOCLDY    48  48 100 CALM      30.07
$$

TNZ083-085-099-282100-
SOUTHEAST TENNESSEE

CITY           SKY/WX    TMP DP  RH WIND       PRES   REMARKS
CHATTANOOGA    CLOUDY    59  55  87 N3        30.03F
$$

SKY/WX REPORTED AS FAIR MEANS FEW OR NO CLOUDS BELOW
12 THOUSAND FEET.



USA.gov is the U.S. government's official web portal to all federal, state and local government web resources and services.